User: anonymous   Login
Location: Unspecified
(0.0000°N, 0.0000°E)
Time: 14:47:56
(UTC+00:00)
Language:

TIMED - Orbit

View from above orbital plane
View from above orbital plane
View from above satellite
View from above satellite

Ground track
Ground track

The orbit data is extracted from the following two-line orbital elements,

1 26998U 01055B   21263.85963663  .00000151  00000-0  20303-4 0  9994
2 26998  74.0707  96.5627 0000685 339.9131  20.2022 14.88346406 72892
Epoch (UTC): 20 September 2021 20:37:52
Eccentricity: 0.0000685
inclination: 74.0707°
perigee height: 602 km
apogee height: 603 km
right ascension of ascending node: 96.5627°
argument of perigee: 339.9131°
revolutions per day: 14.88346406
mean anomaly at epoch: 20.2022°
orbit number at epoch: 7289

The dashed part of the orbit path shows where the satellite is in the earth's shadow,  

DLR